Time,TemperatureF,DewpointF,PressureIn,WindDirection,WindDirectionDegrees,WindSpeedMPH,WindSpeedGustMPH,Humidity,HourlyPrecipIn,Conditions,Clouds,dailyrainin,SoftwareType,DateUTC
2013-04-18 00:02:00,34.0,32.0,29.86,ENE,61,11.0,16.0,92,0.05,,,0.12,,2013-04-18 05:02:00,
2013-04-18 00:12:00,34.0,32.0,29.85,ENE,63,10.0,17.0,93,0.05,,,0.13,,2013-04-18 05:12:00,
2013-04-18 00:22:00,34.0,32.0,29.85,ENE,63,10.0,17.0,93,0.05,,,0.13,,2013-04-18 05:22:00,
2013-04-18 00:33:00,34.0,32.0,29.86,NNE,30,9.0,13.0,93,0.05,,,0.13,,2013-04-18 05:33:00,
2013-04-18 00:42:00,34.0,32.0,29.84,NE,47,10.0,15.0,93,0.02,,,0.13,,2013-04-18 05:42:00,
2013-04-18 00:52:00,34.0,32.0,29.84,NE,47,10.0,15.0,93,0.02,,,0.13,,2013-04-18 05:52:00,
2013-04-18 01:02:00,34.0,32.0,29.84,ENE,63,10.0,14.0,93,0.01,,,0.13,,2013-04-18 06:02:00,
2013-04-18 01:12:00,34.0,32.0,29.84,ENE,63,8.0,14.0,92,0.00,,,0.13,,2013-04-18 06:12:00,
2013-04-18 01:22:00,34.0,32.0,29.84,ENE,63,8.0,14.0,92,0.00,,,0.13,,2013-04-18 06:22:00,
2013-04-18 01:32:00,34.0,32.0,29.83,ENE,58,10.0,17.0,92,0.00,,,0.13,,2013-04-18 06:32:00,
2013-04-18 01:42:00,34.0,32.0,29.82,NE,49,9.0,14.0,92,0.01,,,0.14,,2013-04-18 06:42:00,
2013-04-18 01:52:00,34.0,32.0,29.82,NE,49,9.0,14.0,92,0.01,,,0.14,,2013-04-18 06:52:00,
2013-04-18 02:02:00,34.0,32.0,29.81,NNE,25,7.0,12.0,92,0.02,,,0.15,,2013-04-18 07:02:00,
2013-04-18 02:12:00,34.0,32.0,29.79,ENE,70,10.0,13.0,92,0.02,,,0.15,,2013-04-18 07:12:00,
2013-04-18 02:22:00,34.0,32.0,29.79,ENE,70,10.0,13.0,92,0.02,,,0.15,,2013-04-18 07:22:00,
2013-04-18 02:32:00,34.0,32.0,29.78,NE,50,9.0,21.0,92,0.02,,,0.15,,2013-04-18 07:32:00,
2013-04-18 02:42:00,34.0,32.0,29.77,NE,48,9.0,17.0,92,0.02,,,0.16,,2013-04-18 07:42:00,
2013-04-18 02:52:00,34.0,32.0,29.77,NE,48,9.0,17.0,92,0.02,,,0.16,,2013-04-18 07:52:00,
2013-04-18 03:02:00,34.0,32.0,29.75,NE,34,10.0,17.0,92,0.02,,,0.17,,2013-04-18 08:02:00,
2013-04-18 03:12:00,34.0,32.0,29.75,NE,47,8.0,14.0,92,0.03,,,0.18,,2013-04-18 08:12:00,
2013-04-18 03:22:00,34.0,32.0,29.75,NE,47,8.0,14.0,92,0.03,,,0.18,,2013-04-18 08:22:00,
2013-04-18 03:32:00,34.0,32.0,29.75,NE,53,8.0,15.0,93,0.04,,,0.19,,2013-04-18 08:32:00,
2013-04-18 03:42:00,34.0,32.0,29.75,NE,47,9.0,15.0,93,0.04,,,0.20,,2013-04-18 08:42:00,
2013-04-18 03:52:00,34.0,32.0,29.75,NE,47,9.0,15.0,93,0.04,,,0.20,,2013-04-18 08:52:00,
2013-04-18 04:02:00,34.0,32.0,29.75,NE,43,6.0,13.0,93,0.03,,,0.20,,2013-04-18 09:02:00,
2013-04-18 04:12:00,34.0,32.0,29.74,NNE,24,8.0,13.0,93,0.02,,,0.20,,2013-04-18 09:12:00,
2013-04-18 04:22:00,34.0,32.0,29.74,NNE,24,8.0,13.0,93,0.02,,,0.20,,2013-04-18 09:22:00,
2013-04-18 04:33:00,34.0,32.0,29.73,NE,40,8.0,13.0,93,0.02,,,0.21,,2013-04-18 09:33:00,
2013-04-18 04:42:00,34.0,32.0,29.72,NNE,21,9.0,14.0,93,0.01,,,0.21,,2013-04-18 09:42:00,
2013-04-18 04:53:00,34.0,32.0,29.72,NNE,21,9.0,14.0,93,0.01,,,0.21,,2013-04-18 09:53:00,
2013-04-18 05:03:00,33.0,31.0,29.70,NNE,17,9.0,17.0,93,0.02,,,0.22,,2013-04-18 10:03:00,
2013-04-18 05:12:00,33.0,31.0,29.70,NNE,17,9.0,17.0,93,0.02,,,0.22,,2013-04-18 10:12:00,
2013-04-18 05:23:00,33.0,31.0,29.71,North,11,8.0,18.0,93,0.02,,,0.22,,2013-04-18 10:23:00,
2013-04-18 05:32:00,33.0,31.0,29.70,NE,37,10.0,15.0,93,0.01,,,0.22,,2013-04-18 10:32:00,
2013-04-18 05:42:00,33.0,31.0,29.70,NE,37,10.0,15.0,93,0.01,,,0.22,,2013-04-18 10:42:00,
2013-04-18 05:52:00,33.0,31.0,29.71,North,359,9.0,15.0,93,0.02,,,0.23,,2013-04-18 10:52:00,
2013-04-18 06:02:00,33.0,31.0,29.70,NE,50,9.0,14.0,93,0.01,,,0.23,,2013-04-18 11:02:00,
2013-04-18 06:12:00,33.0,31.0,29.71,North,359,9.0,14.0,93,0.02,,,0.24,,2013-04-18 11:12:00,
2013-04-18 06:22:00,33.0,31.0,29.71,North,359,9.0,14.0,93,0.02,,,0.24,,2013-04-18 11:22:00,
2013-04-18 06:32:00,33.0,31.0,29.72,NNE,14,10.0,15.0,93,0.02,,,0.24,,2013-04-18 11:32:00,
2013-04-18 06:42:00,33.0,31.0,29.72,NNE,14,10.0,15.0,93,0.02,,,0.24,,2013-04-18 11:42:00,
2013-04-18 06:52:00,33.0,31.0,29.72,NNW,344,11.0,16.0,93,0.01,,,0.24,,2013-04-18 11:52:00,
2013-04-18 07:02:00,33.0,31.0,29.72,NE,34,10.0,18.0,92,0.01,,,0.24,,2013-04-18 12:02:00,
2013-04-18 07:12:00,33.0,31.0,29.70,NE,45,8.0,17.0,92,0.01,,,0.25,,2013-04-18 12:12:00,
2013-04-18 07:22:00,33.0,31.0,29.70,NE,45,8.0,17.0,92,0.01,,,0.25,,2013-04-18 12:22:00,
2013-04-18 07:32:00,33.0,31.0,29.70,NNE,23,10.0,17.0,92,0.01,,,0.25,,2013-04-18 12:32:00,
2013-04-18 07:42:00,33.0,31.0,29.70,NNE,23,10.0,17.0,92,0.01,,,0.25,,2013-04-18 12:42:00,
2013-04-18 07:52:00,33.0,31.0,29.70,NNE,27,9.0,15.0,92,0.01,,,0.25,,2013-04-18 12:52:00,
2013-04-18 08:02:00,33.0,31.0,29.69,NE,36,9.0,16.0,92,0.01,,,0.25,,2013-04-18 13:02:00,
2013-04-18 08:12:00,33.0,31.0,29.69,NE,41,9.0,17.0,92,0.00,,,0.25,,2013-04-18 13:12:00,
2013-04-18 08:22:00,33.0,31.0,29.69,NE,41,9.0,17.0,92,0.00,,,0.25,,2013-04-18 13:22:00,
2013-04-18 08:32:00,34.0,32.0,29.67,NE,47,10.0,14.0,92,0.00,,,0.25,,2013-04-18 13:32:00,
2013-04-18 08:42:00,33.0,31.0,29.61,NE,43,14.0,22.0,92,0.00,,,0.25,,2013-04-18 13:42:00,
2013-04-18 08:52:00,33.0,31.0,29.61,NE,43,14.0,22.0,92,0.00,,,0.25,,2013-04-18 13:52:00,
2013-04-18 09:02:00,34.0,32.0,29.66,NE,39,9.0,15.0,92,0.00,,,0.25,,2013-04-18 14:02:00,
2013-04-18 09:12:00,34.0,32.0,29.64,NE,37,7.0,13.0,92,0.00,,,0.25,,2013-04-18 14:12:00,
2013-04-18 09:22:00,34.0,32.0,29.64,NE,37,7.0,13.0,92,0.00,,,0.25,,2013-04-18 14:22:00,
2013-04-18 09:32:00,34.0,32.0,29.61,North,5,11.0,18.0,91,0.00,,,0.25,,2013-04-18 14:32:00,
2013-04-18 09:42:00,34.0,32.0,29.61,NNE,16,9.0,15.0,91,0.00,,,0.25,,2013-04-18 14:42:00,
2013-04-18 09:52:00,34.0,32.0,29.61,NNE,16,9.0,15.0,91,0.00,,,0.25,,2013-04-18 14:52:00,
2013-04-18 10:02:00,34.0,32.0,29.62,North,5,8.0,15.0,91,0.00,,,0.25,,2013-04-18 15:02:00,
2013-04-18 10:12:00,34.0,32.0,29.62,North,5,8.0,15.0,91,0.00,,,0.25,,2013-04-18 15:12:00,
2013-04-18 10:22:00,34.0,31.0,29.61,NNE,32,7.0,16.0,90,0.00,,,0.25,,2013-04-18 15:22:00,
2013-04-18 10:33:00,35.0,32.0,29.59,NE,36,9.0,17.0,90,0.00,,,0.25,,2013-04-18 15:33:00,
2013-04-18 10:42:00,35.0,32.0,29.61,NNE,17,6.0,12.0,89,0.00,,,0.25,,2013-04-18 15:42:00,
2013-04-18 10:52:00,35.0,32.0,29.61,NNE,17,6.0,12.0,89,0.00,,,0.25,,2013-04-18 15:52:00,
2013-04-18 11:03:00,35.0,32.0,29.62,NE,49,8.0,15.0,89,0.00,,,0.25,,2013-04-18 16:03:00,
2013-04-18 11:13:00,35.0,32.0,29.61,NNE,30,8.0,11.0,89,0.00,,,0.25,,2013-04-18 16:13:00,
2013-04-18 11:23:00,35.0,32.0,29.61,NNE,30,8.0,11.0,89,0.00,,,0.25,,2013-04-18 16:23:00,
2013-04-18 11:33:00,36.0,33.0,29.62,North,9,4.0,11.0,89,0.00,,,0.25,,2013-04-18 16:33:00,
2013-04-18 11:42:00,36.0,33.0,29.59,North,7,8.0,14.0,89,0.00,,,0.25,,2013-04-18 16:42:00,
2013-04-18 11:52:00,36.0,33.0,29.59,North,7,8.0,14.0,89,0.00,,,0.25,,2013-04-18 16:52:00,
2013-04-18 12:03:00,36.0,33.0,29.59,NE,53,10.0,20.0,88,0.00,,,0.25,,2013-04-18 17:03:00,
2013-04-18 12:12:00,36.0,33.0,29.59,NE,43,10.0,18.0,88,0.00,,,0.25,,2013-04-18 17:12:00,
2013-04-18 12:22:00,36.0,33.0,29.59,NE,43,10.0,18.0,88,0.00,,,0.25,,2013-04-18 17:22:00,
2013-04-18 12:33:00,36.0,33.0,29.59,NNE,28,8.0,16.0,88,0.00,,,0.25,,2013-04-18 17:33:00,
2013-04-18 12:42:00,36.0,33.0,29.57,NE,51,9.0,15.0,88,0.00,,,0.25,,2013-04-18 17:42:00,
2013-04-18 12:52:00,36.0,33.0,29.57,NE,51,9.0,15.0,88,0.00,,,0.25,,2013-04-18 17:52:00,
2013-04-18 13:02:00,36.0,33.0,29.55,NE,43,10.0,19.0,88,0.00,,,0.25,,2013-04-18 18:02:00,
2013-04-18 13:12:00,36.0,33.0,29.54,ENE,70,10.0,17.0,88,0.00,,,0.25,,2013-04-18 18:12:00,
2013-04-18 13:22:00,36.0,33.0,29.54,ENE,70,10.0,17.0,88,0.00,,,0.25,,2013-04-18 18:22:00,
2013-04-18 13:32:00,36.0,33.0,29.51,NNE,31,14.0,22.0,87,0.00,,,0.25,,2013-04-18 18:32:00,
2013-04-18 13:42:00,36.0,33.0,29.53,NE,56,9.0,20.0,88,0.00,,,0.25,,2013-04-18 18:42:00,
2013-04-18 13:52:00,36.0,33.0,29.53,NE,56,9.0,20.0,88,0.00,,,0.25,,2013-04-18 18:52:00,
2013-04-18 14:02:00,36.0,33.0,29.53,NE,45,10.0,19.0,88,0.00,,,0.25,,2013-04-18 19:02:00,
2013-04-18 14:12:00,36.0,33.0,29.53,NE,45,10.0,19.0,88,0.00,,,0.25,,2013-04-18 19:12:00,
2013-04-18 14:22:00,35.0,32.0,29.52,NE,50,10.0,18.0,89,0.00,,,0.25,,2013-04-18 19:22:00,
2013-04-18 14:32:00,35.0,33.0,29.52,NNE,31,10.0,16.0,91,0.00,,,0.25,,2013-04-18 19:32:00,
2013-04-18 14:42:00,35.0,33.0,29.52,NNE,31,10.0,16.0,91,0.00,,,0.25,,2013-04-18 19:42:00,
2013-04-18 14:53:00,35.0,33.0,29.51,NNE,24,8.0,18.0,91,0.02,,,0.27,,2013-04-18 19:53:00,
2013-04-18 15:02:00,35.0,33.0,29.51,NNE,28,8.0,18.0,92,0.06,,,0.31,,2013-04-18 20:02:00,
2013-04-18 15:12:00,34.0,32.0,29.49,NNE,26,10.0,16.0,92,0.08,,,0.33,,2013-04-18 20:12:00,
2013-04-18 15:22:00,34.0,32.0,29.49,NNE,26,10.0,16.0,92,0.08,,,0.33,,2013-04-18 20:22:00,
2013-04-18 15:32:00,35.0,33.0,29.45,NE,40,14.0,20.0,92,0.12,,,0.37,,2013-04-18 20:32:00,
2013-04-18 15:42:00,34.0,32.0,29.45,NNE,18,12.0,18.0,92,0.11,,,0.38,,2013-04-18 20:42:00,
2013-04-18 15:52:00,34.0,32.0,29.45,NNE,18,12.0,18.0,92,0.11,,,0.38,,2013-04-18 20:52:00,
2013-04-18 16:02:00,34.0,32.0,29.44,NE,34,9.0,16.0,92,0.08,,,0.39,,2013-04-18 21:02:00,
2013-04-18 16:12:00,34.0,32.0,29.41,ENE,57,11.0,19.0,92,0.07,,,0.40,,2013-04-18 21:12:00,
2013-04-18 16:22:00,34.0,32.0,29.41,ENE,57,11.0,19.0,92,0.07,,,0.40,,2013-04-18 21:22:00,
2013-04-18 16:32:00,35.0,33.0,29.39,NE,47,12.0,18.0,92,0.03,,,0.40,,2013-04-18 21:32:00,
2013-04-18 16:43:00,35.0,33.0,29.39,NNE,26,11.0,20.0,92,0.05,,,0.43,,2013-04-18 21:43:00,
2013-04-18 16:53:00,35.0,33.0,29.39,NNE,26,11.0,20.0,92,0.05,,,0.43,,2013-04-18 21:53:00,
2013-04-18 17:02:00,34.0,32.0,29.43,NE,45,6.0,17.0,92,0.05,,,0.44,,2013-04-18 22:02:00,
2013-04-18 17:13:00,35.0,33.0,29.44,NE,37,8.0,14.0,92,0.07,,,0.47,,2013-04-18 22:13:00,
2013-04-18 17:22:00,35.0,33.0,29.44,NE,37,8.0,14.0,92,0.07,,,0.47,,2013-04-18 22:22:00,
2013-04-18 17:32:00,35.0,33.0,29.42,North,9,6.0,11.0,92,0.07,,,0.48,,2013-04-18 22:32:00,
2013-04-18 17:42:00,34.0,32.0,29.41,North,359,8.0,14.0,92,0.06,,,0.49,,2013-04-18 22:42:00,
2013-04-18 17:52:00,34.0,32.0,29.41,North,359,8.0,14.0,92,0.06,,,0.49,,2013-04-18 22:52:00,
2013-04-18 18:03:00,34.0,32.0,29.40,NNE,20,9.0,14.0,92,0.05,,,0.49,,2013-04-18 23:03:00,
2013-04-18 18:11:00,34.0,32.0,29.40,NNE,16,12.0,17.0,93,0.02,,,0.49,,2013-04-18 23:11:00,
2013-04-18 18:21:00,34.0,32.0,29.40,NNE,16,12.0,17.0,93,0.02,,,0.49,,2013-04-18 23:21:00,
2013-04-18 18:32:00,34.0,32.0,29.39,NNE,28,10.0,17.0,92,0.02,,,0.50,,2013-04-18 23:32:00,
2013-04-18 18:42:00,34.0,32.0,29.39,North,359,11.0,17.0,92,0.04,,,0.53,,2013-04-18 23:42:00,
2013-04-18 18:52:00,34.0,32.0,29.39,North,359,11.0,17.0,92,0.04,,,0.53,,2013-04-18 23:52:00,
2013-04-18 19:01:00,33.0,31.0,29.40,North,6,10.0,18.0,92,0.05,,,0.54,,2013-04-19 00:01:00,
2013-04-18 19:12:00,33.0,31.0,29.37,North,4,14.0,20.0,92,0.06,,,0.55,,2013-04-19 00:12:00,
2013-04-18 19:21:00,33.0,31.0,29.37,North,4,14.0,20.0,92,0.06,,,0.55,,2013-04-19 00:21:00,
2013-04-18 19:32:00,33.0,31.0,29.36,North,10,9.0,18.0,92,0.05,,,0.55,,2013-04-19 00:32:00,
2013-04-18 19:42:00,33.0,31.0,29.36,NNE,30,14.0,22.0,92,0.02,,,0.55,,2013-04-19 00:42:00,
2013-04-18 19:52:00,33.0,31.0,29.36,NNE,30,14.0,22.0,92,0.02,,,0.55,,2013-04-19 00:52:00,
2013-04-18 20:01:00,33.0,31.0,29.36,NNE,23,10.0,22.0,92,0.01,,,0.55,,2013-04-19 01:01:00,
2013-04-18 20:11:00,33.0,31.0,29.36,NNE,23,10.0,22.0,92,0.01,,,0.55,,2013-04-19 01:11:00,
2013-04-18 20:21:00,32.0,30.0,29.35,North,349,11.0,17.0,92,0.01,,,0.56,,2013-04-19 01:21:00,
2013-04-18 20:31:00,32.0,30.0,29.34,NNE,20,9.0,17.0,92,0.01,,,0.56,,2013-04-19 01:31:00,
2013-04-18 20:42:00,32.0,30.0,29.35,North,3,11.0,18.0,93,0.01,,,0.56,,2013-04-19 01:42:00,
2013-04-18 20:52:00,32.0,30.0,29.35,North,3,11.0,18.0,93,0.01,,,0.56,,2013-04-19 01:52:00,
2013-04-18 21:01:00,32.0,30.0,29.35,NNE,23,11.0,21.0,92,0.01,,,0.56,,2013-04-19 02:01:00,
2013-04-18 21:11:00,32.0,30.0,29.35,NNE,23,11.0,21.0,92,0.01,,,0.56,,2013-04-19 02:11:00,
2013-04-18 21:21:00,32.0,30.0,29.35,North,359,12.0,16.0,92,0.00,,,0.56,,2013-04-19 02:21:00,
2013-04-18 21:32:00,32.0,30.0,29.35,North,354,9.0,13.0,92,0.00,,,0.56,,2013-04-19 02:32:00,
2013-04-18 21:42:00,32.0,30.0,29.36,North,349,9.0,15.0,92,0.00,,,0.56,,2013-04-19 02:42:00,
2013-04-18 21:52:00,32.0,30.0,29.36,North,349,9.0,15.0,92,0.00,,,0.56,,2013-04-19 02:52:00,
2013-04-18 22:01:00,32.0,30.0,29.35,NNW,344,8.0,16.0,92,0.00,,,0.56,,2013-04-19 03:01:00,
2013-04-18 22:11:00,32.0,30.0,29.35,NNW,344,8.0,16.0,92,0.00,,,0.56,,2013-04-19 03:11:00,
2013-04-18 22:21:00,31.0,29.0,29.35,NNE,26,7.0,12.0,93,0.00,,,0.52,,2013-04-19 03:21:00,
2013-04-18 22:32:00,31.0,29.0,29.35,NNW,332,9.0,13.0,93,0.00,,,0.52,,2013-04-19 03:32:00,
2013-04-18 22:43:00,31.0,29.0,29.35,NW,313,7.0,11.0,93,0.00,,,0.52,,2013-04-19 03:43:00,
2013-04-18 22:53:00,31.0,29.0,29.35,NW,313,7.0,11.0,93,0.00,,,0.52,,2013-04-19 03:53:00,
2013-04-18 23:03:00,31.0,29.0,29.34,NW,315,8.0,12.0,93,0.00,,,0.52,,2013-04-19 04:03:00,
2013-04-18 23:13:00,31.0,29.0,29.32,NW,315,7.0,14.0,93,0.00,,,0.48,,2013-04-19 04:13:00,
2013-04-18 23:23:00,31.0,29.0,29.32,NW,315,7.0,14.0,93,0.00,,,0.48,,2013-04-19 04:23:00,
2013-04-18 23:33:00,30.0,28.0,29.32,NNW,332,9.0,16.0,93,0.00,,,0.48,,2013-04-19 04:33:00,
2013-04-18 23:43:00,30.0,28.0,29.31,NNW,327,11.0,16.0,93,0.00,,,0.48,,2013-04-19 04:43:00,
2013-04-18 23:52:00,30.0,28.0,29.31,NNW,327,11.0,16.0,93,0.00,,,0.48,,2013-04-19 04:52:00,